Location: Vidojevica
(43.1414°N, 21.5558°E)
Time: 12:44:19
(UTC+01:00)

Tiangong 2 - Pass Details

Date: 24 August 2018
Orbit: 382 x 393 km, 42.8° (Epoch: 19 November)

Event Time Altitude Azimuth Distance (km) Brightness Sun altitude
Exits shadow 02:34:35 - 84° (E) 1,772 4.9 -29.3°
Enters shadow 03:32:40 -64° 264° (W) 11,874 8.6 -22.4°
Maximum altitude 04:07:22 86° 180° (S) 389 0.9 -17.5°
